Regional Weather Roundup
Issued by NWS Kansas City/Pleasant Hill, MO

Home | Current Version | Previous Version | Graphics & Text | Print | Product List | Glossary Off
Versions: 1 2 3 4 5 6 7 8 9 10 11 12 13 14 15 16 17 18 19 20 21 22 23 24 25 26 27 28 29 30 31 32 33 34 35 36 37 38 39 40 41 42 43 44 45 46 47 48 49 50

000
ASUS43 KEAX 250604
RWREAX

WEATHER ROUNDUP FOR EASTERN KANSAS AND NORTHWEST MISSOURI
NATIONAL WEATHER SERVICE KANSAS CITY/PLEASANT HILL MO
100 AM CDT MON MAY 25 2015

KSZ040-057-103>105-MOZ028-029-037-043-250700-
...KANSAS CITY METROPOLITAN AREA...

CITY           SKY/WX    TMP DP  RH WIND       PRES   REMARKS
K.C. INTL      CLOUDY    62  62 100 SW3       29.83S
6HR MIN TEMP:  62; 6HR MAX TEMP:  67; 6HR PCP: TRACE;

K.C. DOWNTOWN  CLOUDY    65  61  87 SW3       29.82S
6HR MIN TEMP:  65; 6HR MAX TEMP:  68; 6HR PCP: TRACE;

LEES SUMMIT    CLOUDY    63  62  97 SW5       29.84S
6HR MIN TEMP:  63; 6HR MAX TEMP:  66; 6HR PCP:  0.07;

OLATHE - IXD   CLOUDY    62  61  96 S5        29.84R
6HR MIN TEMP:  62; 6HR MAX TEMP:  66;

OLATHE - OJC   CLOUDY    62  61  96 SW3       29.83S
6HR MIN TEMP:  62; 6HR MAX TEMP:  67; 6HR PCP: TRACE;

LAWRENCE       LGT RAIN  63  60  90 SW5       29.84R

$$

MOZ001>008-011>017-020>025-030>033-038>040-044>046-053-054-250700-
...NORTHERN AND CENTRAL MISSOURI...

CITY           SKY/WX    TMP DP  RH WIND       PRES   REMARKS
ST. JOSEPH     CLOUDY    63  62  97 S5        29.82S
6HR MIN TEMP:  63; 6HR MAX TEMP:  68; 6HR PCP: TRACE;

MOSBY          CLOUDY    63  63 100 CALM      29.83S
WHITEMAN AFB   NOT AVBL
CLINTON        NOT AVBL
SEDALIA        CLOUDY    65  63  93 SW5       29.85R
6HR MIN TEMP:  65; 6HR MAX TEMP:  69; 6HR PCP:  0.11;

WARSAW         NOT AVBL
CHILLICOTHE      N/A     64  63  96 S5        29.83S
6HR MIN TEMP:  64; 6HR MAX TEMP:  67;

KIRKSVILLE     CLOUDY    63  63 100 W5        29.82S
6HR MIN TEMP:  63; 6HR MAX TEMP:  68; 6HR PCP:  0.05;


$$

MOZ041-047>049-056>058-063>065-088>090-097-250700-
...EASTERN AND SOUTHERN MISSOURI...

CITY           SKY/WX    TMP DP  RH WIND       PRES   REMARKS
ST. LOUIS INTL CLOUDY    70  64  81 S16G23    29.88F
6HR MIN TEMP:  70; 6HR MAX TEMP:  82; 6HR PCP:  0.24;

SPIRIT OF STL  CLOUDY    69  66  90 S10G18    29.86F
COLUMBIA       LGT RAIN  65  64  97 W5        29.83S
JEFFERSON CITY CLOUDY    66  64  93 SW6       29.84R
ROLLA          CLOUDY    67  64  90 S12       29.86R
OSAGE BEACH    CLOUDY    64  63  94 S5        29.86S
SPRINGFIELD    LGT RAIN  63  61  93 S14       29.89S
BRANSON        PTCLDY    63  61  94 CALM      29.94S
JOPLIN         CLOUDY    61  60  97 S7        29.90S
WEST PLAINS    CLOUDY    70  64  81 S10       29.95R

$$

IAZ060-094-KSZ022-034>040-054-083-096-NEZ052-066-093-250700-
...KANSAS...SOUTHEAST NEBRASKA AND IOWA...

CITY           SKY/WX    TMP DP  RH WIND       PRES   REMARKS
TOPEKA         CLOUDY    64  61  90 CALM      29.82S
6HR MIN TEMP:  63; 6HR MAX TEMP:  67;

MANHATTAN      CLOUDY    60  59  96 SW5       29.82R
EMPORIA        CLOUDY    61  58  90 SW6       29.85R
CHANUTE        CLOUDY    61  61 100 S15       29.86R
WICHITA        MOCLDY    60  58  92 S10       29.84F
OMAHA          CLOUDY    66  60  81 S5        29.77F
LINCOLN        CLOUDY    61  59  93 CALM      29.79F
FALLS CITY     CLOUDY    62  60  93 SE5       29.80F
LAMONI         CLOUDY    64  61  90 S6        29.81S
DES MOINES     LGT RAIN  65  62  90 S7        29.77F

$$




USA.gov is the U.S. government's official web portal to all federal, state and local government web resources and services.